^^
Datos históricos de la estación: Murcia-Puente Tocinos
Diario Informe para Mayo 03, 2021 Unidades:  Métrico    Ingés   Ambas
Diario Semanal Mensual Anual
  Máxima: Mínima: Promedio:
Temperatura: 16.8 °C 14.5 °C 15.1 °C
Punto de rocio: 11.9 °C 10.3 °C 11.5 °C
Humedad: 82.5% 67% 80%
Velocidad viento: 7.6km/h 0km/h 4.4km/h
Racha viento: 11.9km/h - -
Viento- - SSO
Presión: 1019.1 hPa 1017.5 hPa -
Precipitación: 0.0 mm    
 
 
Tabla de datos para Mayo 03, 2021
Hora Temperatura Punto de rocio Presión Viento Velocidad viento Racha viento Humedad Intensidad lluvia(por hora) Nubes
00:04 15.2 °C 11.9 °C 1018.0 hPa NE 5.8 km/h 8.7 km/h 81% 0.0 mm
00:09 15.2 °C 11.9 °C 1018.0 hPa NE 5.8 km/h 9.7 km/h 81% 0.0 mm
00:14 15.2 °C 11.9 °C 1018.1 hPa NE 5.8 km/h 9.7 km/h 81% 0.0 mm
00:19 15.1 °C 11.9 °C 1018.1 hPa NNE 4.9 km/h 5.8 km/h 81% 0.0 mm
00:24 15.1 °C 11.9 °C 1018.1 hPa NNE 4.7 km/h 6.4 km/h 81% 0.0 mm
00:29 15.1 °C 11.9 °C 1018.2 hPa NE 3.6 km/h 6.4 km/h 81% 0.0 mm
00:34 15.1 °C 11.9 °C 1018.2 hPa NE 3.2 km/h 4.8 km/h 81% 0.0 mm
00:39 15.1 °C 11.9 °C 1018.2 hPa NE 0.7 km/h 5.6 km/h 81% 0.0 mm
00:44 15.1 °C 11.8 °C 1018.3 hPa Calm   5.8 km/h 80.8% 0.0 mm
00:49 15.1 °C 11.8 °C 1018.3 hPa NE 1.6 km/h 2.3 km/h 80.8% 0.0 mm
00:54 15.1 °C 11.7 °C 1018.3 hPa NE 2.3 km/h 3.7 km/h 80.3% 0.0 mm
00:59 15.1 °C 11.7 °C 1018.3 hPa NE 0.4 km/h 4.7 km/h 80% 0.0 mm
01:04 15.1 °C 11.7 °C 1018.2 hPa Calm   4.8 km/h 80% 0.0 mm
01:09 15.1 °C 11.7 °C 1018.2 hPa NNE 1.6 km/h 3.2 km/h 80% 0.0 mm
01:14 15.1 °C 11.7 °C 1018.3 hPa NNE 2.2 km/h   80% 0.0 mm
01:19 15 °C 11.6 °C 1018.3 hPa NNE 0.4 km/h   80% 0.0 mm
01:24 15 °C 11.5 °C 1018.3 hPa Calm     80% 0.0 mm
01:29 14.9 °C 11.5 °C 1018.3 hPa Calm   7.4 km/h 80% 0.0 mm
01:34 14.9 °C 11.5 °C 1018.3 hPa Calm   8 km/h 80% 0.0 mm
01:39 14.9 °C 11.5 °C 1018.3 hPa NNE 2.4 km/h 5 km/h 80% 0.0 mm
01:44 14.9 °C 11.5 °C 1018.3 hPa North 3.2 km/h 5.8 km/h 80% 0.0 mm
01:49 14.8 °C 11.5 °C 1018.1 hPa NO 3 km/h 6.9 km/h 80.7% 0.0 mm
01:54 14.8 °C 11.6 °C 1018.1 hPa ONO 2.9 km/h 8 km/h 81% 0.0 mm
01:59 14.8 °C 11.5 °C 1018.2 hPa ONO 4.2 km/h 8 km/h 81% 0.0 mm
02:04 14.7 °C 11.4 °C 1018.2 hPa ONO 4.7 km/h 8.4 km/h 81% 0.0 mm
02:09 14.6 °C 11.5 °C 1018.2 hPa ONO 4.6 km/h 8 km/h 81.6% 0.0 mm
02:14 14.5 °C 11.4 °C 1018.2 hPa ONO 4.6 km/h 8 km/h 82% 0.0 mm
02:19 14.5 °C 11.4 °C 1018.2 hPa ONO 3.6 km/h 4.8 km/h 82% 0.0 mm
02:24 14.5 °C 11.4 °C 1018.2 hPa ONO 3.2 km/h 3.7 km/h 82% 0.0 mm
02:29 14.6 °C 11.6 °C 1018.2 hPa ONO 0.7 km/h 5.6 km/h 82.5% 0.0 mm
02:34 14.6 °C 11.6 °C 1018.1 hPa Calm   5.6 km/h 82% 0.0 mm
02:39 14.7 °C 11.7 °C 1018.1 hPa ONO 2.2 km/h 4.8 km/h 82% 0.0 mm
02:44 14.7 °C 11.7 °C 1018.1 hPa ONO 2.9 km/h 4.8 km/h 82% 0.0 mm
02:49 14.7 °C 11.7 °C 1018.0 hPa Oeste 2.4 km/h 5.8 km/h 82% 0.0 mm
02:54 14.8 °C 11.8 °C 1018.0 hPa Oeste 2.2 km/h 6.4 km/h 82% 0.0 mm
02:59 14.8 °C 11.8 °C 1018.0 hPa Oeste 3 km/h 6.4 km/h 81.8% 0.0 mm
03:04 14.9 °C 11.7 °C 1017.9 hPa Oeste 3.2 km/h 5.8 km/h 81% 0.0 mm
03:09 14.9 °C 11.7 °C 1017.9 hPa Oeste 3 km/h 6.4 km/h 81% 0.0 mm
03:14 15 °C 11.7 °C 1017.9 hPa Oeste 2.9 km/h 6.4 km/h 81% 0.0 mm
03:19 15 °C 11.8 °C 1017.8 hPa Oeste 0.6 km/h 5 km/h 81% 0.0 mm
03:24 15.1 °C 11.9 °C 1017.8 hPa Calm   7.6 km/h 81% 0.0 mm
03:29 15.1 °C 11.9 °C 1017.9 hPa OSO 2.8 km/h 7.6 km/h 81% 0.0 mm
03:34 15.1 °C 11.9 °C 1017.9 hPa OSO 3.9 km/h 8.7 km/h 81% 0.0 mm
03:39 15.2 °C 11.9 °C 1017.9 hPa SO 3.9 km/h 9.7 km/h 81% 0.0 mm
03:44 15.2 °C 11.9 °C 1017.9 hPa SO 3.9 km/h 9.7 km/h 81% 0.0 mm
03:49 15.2 °C 11.8 °C 1017.8 hPa SO 5.3 km/h 9.7 km/h 80.3% 0.0 mm
03:54 15.2 °C 11.8 °C 1017.8 hPa OSO 5.8 km/h 9.7 km/h 80% 0.0 mm
03:59 15.3 °C 11.8 °C 1017.8 hPa OSO 5.2 km/h 9.7 km/h 80% 0.0 mm
04:04 15.3 °C 11.9 °C 1017.5 hPa OSO 5 km/h 8 km/h 80% 0.0 mm
04:09 15.3 °C 11.9 °C 1017.5 hPa SSO 4.1 km/h 8 km/h 80% 0.0 mm
04:14 15.3 °C 11.9 °C 1017.7 hPa SO 3.9 km/h 8 km/h 80% 0.0 mm
04:19 15.3 °C 11.9 °C 1017.7 hPa SSE 3.4 km/h 10.3 km/h 80% 0.0 mm
04:24 15.2 °C 11.7 °C 1017.7 hPa SSE 3.2 km/h 11.3 km/h 80.1% 0.0 mm
04:29 15 °C 11.7 °C 1017.8 hPa SSE 6.2 km/h 11.3 km/h 81% 0.0 mm
04:34 14.9 °C 11.6 °C 1017.8 hPa SSE 6.9 km/h 9.7 km/h 81% 0.0 mm
04:39 14.8 °C 11.6 °C 1017.8 hPa SSE 6.9 km/h 9.7 km/h 81% 0.0 mm
04:44 14.8 °C 11.6 °C 1017.8 hPa Sur 6.9 km/h 11.1 km/h 81.5% 0.0 mm
04:49 14.7 °C 11.7 °C 1017.8 hPa SSE 6.9 km/h 11.3 km/h 82% 0.0 mm
04:54 14.7 °C 11.7 °C 1017.8 hPa Sur 6.9 km/h 11.9 km/h 82% 0.0 mm
04:59 14.7 °C 11.7 °C 1017.8 hPa Sur 7.4 km/h 11.3 km/h 82% 0.0 mm
05:04 14.7 °C 11.7 °C 1017.7 hPa SSO 7.6 km/h 11.1 km/h 82% 0.0 mm
05:09 14.8 °C 11.7 °C 1017.7 hPa SSO 6.7 km/h 11.3 km/h 82% 0.0 mm
05:14 14.8 °C 11.8 °C 1017.9 hPa Sur 6.5 km/h 9.7 km/h 82% 0.0 mm
05:19 14.8 °C 11.8 °C 1017.9 hPa Sur 5.4 km/h 9.7 km/h 82% 0.0 mm
05:24 14.8 °C 11.8 °C 1017.9 hPa SO 5 km/h 11.1 km/h 82% 0.0 mm
05:29 14.8 °C 11.8 °C 1018.0 hPa SO 6.1 km/h 11.3 km/h 82% 0.0 mm
05:34 14.9 °C 11.7 °C 1018.0 hPa SO 6.5 km/h 9.7 km/h 81.1% 0.0 mm
05:39 14.9 °C 11.7 °C 1018.0 hPa SSO 6 km/h 9.7 km/h 81% 0.0 mm
05:44 14.9 °C 11.7 °C 1018.0 hPa Sur 5.8 km/h 9.7 km/h 81% 0.0 mm
05:49 14.9 °C 11.7 °C 1017.9 hPa Sur 5.2 km/h 9.7 km/h 81% 0.0 mm
05:54 14.9 °C 11.7 °C 1017.9 hPa Sur 5 km/h 9.7 km/h 81% 0.0 mm
05:59 14.8 °C 11.6 °C 1017.9 hPa Sur 5.6 km/h 9.7 km/h 81% 0.0 mm
06:04 14.8 °C 11.6 °C 1017.9 hPa Sur 5.8 km/h 9.7 km/h 81% 0.0 mm
06:09 14.8 °C 11.7 °C 1017.9 hPa Sur 5.2 km/h 8 km/h 81.7% 0.0 mm
06:14 14.7 °C 11.7 °C 1017.9 hPa Sur 5 km/h 8.4 km/h 82% 0.0 mm
06:19 14.7 °C 11.7 °C 1017.8 hPa Sur 5 km/h 9.5 km/h 82% 0.0 mm
06:24 14.7 °C 11.7 °C 1017.8 hPa Sur 5 km/h 10 km/h 82% 0.0 mm
06:29 14.7 °C 11.7 °C 1017.8 hPa SSO 6.1 km/h 9.7 km/h 82% 0.0 mm
06:34 14.7 °C 11.7 °C 1017.8 hPa SO 6.5 km/h 9.7 km/h 82% 0.0 mm
06:39 14.7 °C 11.7 °C 1017.8 hPa SO 5.4 km/h 8 km/h 82% 0.0 mm
06:44 14.7 °C 11.7 °C 1017.8 hPa OSO 5 km/h 8 km/h 82% 0.0 mm
06:49 14.7 °C 11.7 °C 1017.6 hPa OSO 4.1 km/h 8 km/h 82% 0.0 mm
06:54 14.7 °C 11.7 °C 1017.6 hPa SO 3.9 km/h 8 km/h 82% 0.0 mm
06:59 14.7 °C 11.7 °C 1017.6 hPa SSO 3.9 km/h 8 km/h 82% 0.0 mm
07:04 14.7 °C 11.7 °C 1017.6 hPa Sur 3.9 km/h 8.7 km/h 82% 0.0 mm
07:09 14.7 °C 11.7 °C 1017.6 hPa Sur 4.7 km/h 9.7 km/h 82% 0.0 mm
07:14 14.7 °C 11.7 °C 1017.7 hPa SSO 5 km/h 9.7 km/h 82% 0.0 mm
07:19 14.7 °C 11.7 °C 1017.7 hPa SSE 4.8 km/h 9.7 km/h 82% 0.0 mm
07:24 14.8 °C 11.8 °C 1017.7 hPa SSE 4.7 km/h 8.4 km/h 82% 0.0 mm
07:29 14.8 °C 11.8 °C 1017.7 hPa SSE 4.9 km/h 9.3 km/h 82% 0.0 mm
07:34 14.8 °C 11.8 °C 1017.6 hPa SSE 5 km/h 9.7 km/h 82% 0.0 mm
07:39 14.8 °C 11.7 °C 1017.6 hPa SSE 5.6 km/h 9.7 km/h 81.7% 0.0 mm
07:44 14.8 °C 11.8 °C 1017.9 hPa SSE 5.8 km/h 11.9 km/h 82% 0.0 mm
07:49 14.8 °C 11.8 °C 1017.9 hPa Sur 6.3 km/h 11.3 km/h 82% 0.0 mm
07:54 14.9 °C 11.7 °C 1017.9 hPa Sur 6.5 km/h 9.3 km/h 81.1% 0.0 mm
07:59 14.8 °C 11.5 °C 1018.1 hPa Sur 6.5 km/h 11.1 km/h 80.4% 0.0 mm
08:04 14.8 °C 11.3 °C 1018.1 hPa Sur 6.5 km/h 11.3 km/h 79.4% 0.0 mm
08:09 14.9 °C 11.2 °C 1018.1 hPa Sur 6.8 km/h 11.3 km/h 78.5% 0.0 mm
08:14 15.1 °C 11.1 °C 1018.2 hPa Sur 6.9 km/h 11.9 km/h 77.4% 0.0 mm
08:19 15.2 °C 11 °C 1018.2 hPa Sur 6.9 km/h 11.9 km/h 76.1% 0.0 mm
08:24 15.3 °C 11.1 °C 1018.2 hPa Sur 6.9 km/h 11.1 km/h 76% 0.0 mm
08:29 15.4 °C 11.1 °C 1018.5 hPa SO 6.9 km/h 11.3 km/h 75.6% 0.0 mm
08:34 15.6 °C 11 °C 1018.5 hPa SO 6.9 km/h 11.1 km/h 74.2% 0.0 mm
08:39 15.6 °C 10.9 °C 1018.5 hPa SSO 6.9 km/h 11.3 km/h 73.6% 0.0 mm
08:44 15.6 °C 10.8 °C 1018.7 hPa SSO 6.9 km/h 11.3 km/h 73% 0.0 mm
08:49 15.6 °C 10.8 °C 1018.7 hPa SO 6.1 km/h 9.7 km/h 73% 0.0 mm
08:54 15.7 °C 10.6 °C 1018.7 hPa OSO 5.8 km/h 10.3 km/h 71.8% 0.0 mm
08:59 15.7 °C 10.4 °C 1018.8 hPa SO 5 km/h 11.3 km/h 70.7% 0.0 mm
09:04 15.7 °C 10.3 °C 1018.8 hPa SO 4.6 km/h 11.3 km/h 70.1% 0.0 mm
09:09 15.8 °C 10.3 °C 1018.8 hPa OSO 4.9 km/h 9.7 km/h 70% 0.0 mm
09:14 15.8 °C 10.4 °C 1018.9 hPa Oeste 5 km/h 9.5 km/h 70% 0.0 mm
09:19 15.9 °C 10.4 °C 1018.9 hPa SO 5 km/h 10 km/h 70% 0.0 mm
09:24 15.9 °C 10.4 °C 1018.9 hPa SO 5 km/h 9.7 km/h 69.8% 0.0 mm
09:29 16.1 °C 10.5 °C 1019.1 hPa SO 5.6 km/h 9.7 km/h 69.6% 0.0 mm
09:34 16.2 °C 10.6 °C 1019.1 hPa OSO 5.8 km/h 8 km/h 69% 0.0 mm
09:39 16.4 °C 10.6 °C 1019.1 hPa SSO 3.8 km/h 5.8 km/h 68.5% 0.0 mm
09:44 16.6 °C 10.7 °C 1019.1 hPa Sur 2.9 km/h 7.6 km/h 68% 0.0 mm
09:49 16.7 °C 10.7 °C 1019.1 hPa ONO 3.1 km/h 8 km/h 67.4% 0.0 mm
09:54 16.8 °C 10.7 °C 1019.1 hPa OSO 3.2 km/h 8 km/h 67% 0.0 mm
Murcia-Puente Tocinos, España
Compliments of Weather Underground - 2 mb

La estación de MeteoMurcia.com, publica sus datos en los siguientes proyectos:

Weather Underground PWS IMURCIAP2 Meteoclimatic www.awekas.at

W3Counter
Web Analytics